Time,TemperatureF,DewpointF,PressureIn,WindDirection,WindDirectionDegrees,WindSpeedMPH,WindSpeedGustMPH,Humidity,HourlyPrecipIn,Conditions,Clouds,dailyrainin,SoftwareType,DateUTC
2013-07-07 00:00:00,80.4,73.3,30.09,East,90,0.0,3.0,79,0.00,,,0.00,WeatherCatV1.15B25,2013-07-07 04:00:00,
2013-07-07 00:01:00,80.4,73.3,30.09,East,90,0.0,3.0,79,0.00,,,0.00,WeatherCatV1.15B25,2013-07-07 04:01:00,
2013-07-07 00:04:00,80.3,73.2,30.09,ENE,74,0.0,4.0,79,0.00,,,0.00,WeatherCatV1.15B25,2013-07-07 04:04:00,
2013-07-07 00:09:00,80.2,73.1,30.09,ESE,105,1.0,4.0,79,0.00,,,0.00,WeatherCatV1.15B25,2013-07-07 04:09:00,
2013-07-07 00:14:00,80.1,73.0,30.09,ESE,105,0.0,3.0,79,0.00,,,0.00,WeatherCatV1.15B25,2013-07-07 04:14:00,
2013-07-07 00:19:00,80.0,73.3,30.09,East,86,0.0,4.0,80,0.00,,,0.00,WeatherCatV1.15B25,2013-07-07 04:19:00,
2013-07-07 00:24:00,79.9,73.2,30.09,ENE,69,1.0,2.0,80,0.00,,,0.00,WeatherCatV1.15B25,2013-07-07 04:24:00,
2013-07-07 00:29:00,79.8,73.1,30.09,East,98,1.0,1.0,80,0.00,,,0.00,WeatherCatV1.15B25,2013-07-07 04:29:00,
2013-07-07 00:34:00,79.6,73.2,30.08,ESE,103,0.0,3.0,81,0.00,,,0.00,WeatherCatV1.15B25,2013-07-07 04:34:00,
2013-07-07 00:39:00,79.5,73.1,30.08,East,98,1.0,2.0,81,0.00,,,0.00,WeatherCatV1.15B25,2013-07-07 04:39:00,
2013-07-07 00:44:00,79.4,73.4,30.08,East,94,1.0,4.0,82,0.00,,,0.00,WeatherCatV1.15B25,2013-07-07 04:44:00,
2013-07-07 00:49:00,79.3,73.7,30.08,East,94,0.0,0.0,83,0.00,,,0.00,WeatherCatV1.15B25,2013-07-07 04:49:00,
2013-07-07 00:52:00,79.2,73.6,30.08,East,94,0.0,0.0,83,0.00,,,0.00,WeatherCatV1.15B25,2013-07-07 04:52:00,
2013-07-07 00:57:00,79.1,73.5,30.08,East,94,0.0,0.0,83,0.00,,,0.00,WeatherCatV1.15B25,2013-07-07 04:57:00,
2013-07-07 01:02:00,78.9,73.6,30.08,East,94,0.0,1.0,84,0.00,,,0.00,WeatherCatV1.15B25,2013-07-07 05:02:00,
2013-07-07 01:07:00,78.7,73.4,30.08,East,94,0.0,1.0,84,0.00,,,0.00,WeatherCatV1.15B25,2013-07-07 05:07:00,
2013-07-07 01:12:00,78.5,73.6,30.08,East,94,0.0,0.0,85,0.00,,,0.00,WeatherCatV1.15B25,2013-07-07 05:12:00,
2013-07-07 01:17:00,78.4,73.5,30.08,East,94,0.0,0.0,85,0.00,,,0.00,WeatherCatV1.15B25,2013-07-07 05:17:00,
2013-07-07 01:22:00,78.3,73.4,30.08,East,94,0.0,0.0,85,0.00,,,0.00,WeatherCatV1.15B25,2013-07-07 05:22:00,
2013-07-07 01:27:00,78.2,73.7,30.08,East,94,0.0,0.0,86,0.00,,,0.00,WeatherCatV1.15B25,2013-07-07 05:27:00,
2013-07-07 01:32:00,78.1,73.2,30.08,East,94,0.0,0.0,85,0.00,,,0.00,WeatherCatV1.15B25,2013-07-07 05:32:00,
2013-07-07 01:37:00,78.0,73.5,30.08,East,94,0.0,0.0,86,0.00,,,0.00,WeatherCatV1.15B25,2013-07-07 05:37:00,
2013-07-07 01:42:00,77.9,73.7,30.08,East,94,0.0,0.0,87,0.00,,,0.00,WeatherCatV1.15B25,2013-07-07 05:42:00,
2013-07-07 01:47:00,77.7,73.5,30.08,East,94,0.0,0.0,87,0.00,,,0.00,WeatherCatV1.15B25,2013-07-07 05:47:00,
2013-07-07 01:52:00,77.6,73.4,30.07,East,94,0.0,0.0,87,0.00,,,0.00,WeatherCatV1.15B25,2013-07-07 05:52:00,
2013-07-07 01:57:00,77.5,73.3,30.07,East,94,0.0,0.0,87,0.00,,,0.00,WeatherCatV1.15B25,2013-07-07 05:57:00,
2013-07-07 02:02:00,77.4,73.6,30.07,East,94,0.0,0.0,88,0.00,,,0.00,WeatherCatV1.15B25,2013-07-07 06:02:00,
2013-07-07 02:07:00,77.3,73.5,30.07,East,94,0.0,0.0,88,0.00,,,0.00,WeatherCatV1.15B25,2013-07-07 06:07:00,
2013-07-07 02:12:00,77.2,73.7,30.07,East,94,0.0,1.0,89,0.00,,,0.00,WeatherCatV1.15B25,2013-07-07 06:12:00,
2013-07-07 02:17:00,77.2,73.7,30.07,East,94,0.0,1.0,89,0.00,,,0.00,WeatherCatV1.15B25,2013-07-07 06:17:00,
2013-07-07 02:22:00,77.1,73.6,30.07,East,94,0.0,0.0,89,0.00,,,0.00,WeatherCatV1.15B25,2013-07-07 06:22:00,
2013-07-07 02:27:00,77.1,73.6,30.07,East,92,0.0,0.0,89,0.00,,,0.00,WeatherCatV1.15B25,2013-07-07 06:27:00,
2013-07-07 02:32:00,77.1,73.6,30.07,East,92,0.0,0.0,89,0.00,,,0.00,WeatherCatV1.15B25,2013-07-07 06:32:00,
2013-07-07 02:37:00,77.1,73.6,30.07,East,92,0.0,0.0,89,0.00,,,0.00,WeatherCatV1.15B25,2013-07-07 06:37:00,
2013-07-07 02:42:00,76.9,73.4,30.07,East,92,0.0,1.0,89,0.00,,,0.00,WeatherCatV1.15B25,2013-07-07 06:42:00,
2013-07-07 02:47:00,76.8,73.3,30.07,East,92,0.0,0.0,89,0.00,,,0.00,WeatherCatV1.15B25,2013-07-07 06:47:00,
2013-07-07 02:52:00,76.8,73.6,30.07,East,92,0.0,0.0,90,0.00,,,0.00,WeatherCatV1.15B25,2013-07-07 06:52:00,
2013-07-07 02:57:00,76.7,73.5,30.07,East,90,0.0,2.0,90,0.00,,,0.00,WeatherCatV1.15B25,2013-07-07 06:57:00,
2013-07-07 03:02:00,76.7,73.5,30.06,ESE,107,0.0,1.0,90,0.00,,,0.00,WeatherCatV1.15B25,2013-07-07 07:02:00,
2013-07-07 03:07:00,76.7,73.5,30.06,East,100,0.0,0.0,90,0.00,,,0.00,WeatherCatV1.15B25,2013-07-07 07:07:00,
2013-07-07 03:12:00,76.7,73.5,30.06,East,100,0.0,0.0,90,0.00,,,0.00,WeatherCatV1.15B25,2013-07-07 07:12:00,
2013-07-07 03:17:00,76.7,73.5,30.06,East,100,0.0,0.0,90,0.00,,,0.00,WeatherCatV1.15B25,2013-07-07 07:17:00,
2013-07-07 03:22:00,76.6,73.4,30.06,East,100,0.0,0.0,90,0.00,,,0.00,WeatherCatV1.15B25,2013-07-07 07:22:00,
2013-07-07 03:27:00,76.6,73.4,30.06,East,98,0.0,1.0,90,0.00,,,0.00,WeatherCatV1.15B25,2013-07-07 07:27:00,
2013-07-07 03:32:00,76.5,73.7,30.05,East,90,0.0,0.0,91,0.00,,,0.00,WeatherCatV1.15B25,2013-07-07 07:32:00,
2013-07-07 03:37:00,76.5,73.7,30.06,East,84,0.0,0.0,91,0.00,,,0.00,WeatherCatV1.15B25,2013-07-07 07:37:00,
2013-07-07 03:42:00,76.5,73.7,30.05,East,84,0.0,1.0,91,0.00,,,0.00,WeatherCatV1.15B25,2013-07-07 07:42:00,
2013-07-07 03:47:00,76.4,73.6,30.05,East,84,0.0,1.0,91,0.00,,,0.00,WeatherCatV1.15B25,2013-07-07 07:47:00,
2013-07-07 03:52:00,76.4,73.6,30.05,East,84,0.0,1.0,91,0.00,,,0.00,WeatherCatV1.15B25,2013-07-07 07:52:00,
2013-07-07 03:57:00,76.3,73.5,30.05,ENE,74,0.0,2.0,91,0.00,,,0.00,WeatherCatV1.15B25,2013-07-07 07:57:00,
2013-07-07 04:02:00,76.3,73.5,30.05,East,90,0.0,3.0,91,0.00,,,0.00,WeatherCatV1.15B25,2013-07-07 08:02:00,
2013-07-07 04:07:00,76.3,73.5,30.05,East,93,1.0,3.0,91,0.00,,,0.00,WeatherCatV1.15B25,2013-07-07 08:07:00,
2013-07-07 04:12:00,76.2,73.4,30.05,East,93,0.0,1.0,91,0.00,,,0.00,WeatherCatV1.15B25,2013-07-07 08:12:00,
2013-07-07 04:17:00,76.2,73.4,30.05,NE,50,0.0,1.0,91,0.00,,,0.00,WeatherCatV1.15B25,2013-07-07 08:17:00,
2013-07-07 04:22:00,76.1,73.3,30.05,East,88,1.0,4.0,91,0.00,,,0.00,WeatherCatV1.15B25,2013-07-07 08:22:00,
2013-07-07 04:27:00,76.1,73.6,30.05,East,94,0.0,2.0,92,0.00,,,0.00,WeatherCatV1.15B25,2013-07-07 08:27:00,
2013-07-07 04:32:00,76.0,73.5,30.05,East,98,0.0,1.0,92,0.00,,,0.00,WeatherCatV1.15B25,2013-07-07 08:32:00,
2013-07-07 04:37:00,76.0,73.5,30.05,ESE,108,0.0,1.0,92,0.00,,,0.00,WeatherCatV1.15B25,2013-07-07 08:37:00,
2013-07-07 04:42:00,76.0,73.5,30.05,ESE,109,0.0,2.0,92,0.00,,,0.00,WeatherCatV1.15B25,2013-07-07 08:42:00,
2013-07-07 04:47:00,76.0,73.5,30.05,ENE,68,2.0,2.0,92,0.00,,,0.00,WeatherCatV1.15B25,2013-07-07 08:47:00,
2013-07-07 04:52:00,76.0,73.5,30.05,ESE,107,1.0,2.0,92,0.00,,,0.00,WeatherCatV1.15B25,2013-07-07 08:52:00,
2013-07-07 04:57:00,76.0,73.5,30.05,East,98,0.0,1.0,92,0.00,,,0.00,WeatherCatV1.15B25,2013-07-07 08:57:00,
2013-07-07 05:02:00,76.0,73.5,30.05,East,97,0.0,0.0,92,0.00,,,0.00,WeatherCatV1.15B25,2013-07-07 09:02:00,
2013-07-07 05:06:00,75.9,73.4,30.05,East,96,0.0,0.0,92,0.00,,,0.00,WeatherCatV1.15B25,2013-07-07 09:06:00,
2013-07-07 05:11:00,75.9,73.4,30.05,East,97,0.0,0.0,92,0.00,,,0.00,WeatherCatV1.15B25,2013-07-07 09:11:00,
2013-07-07 05:16:00,75.8,73.3,30.05,East,96,0.0,0.0,92,0.00,,,0.00,WeatherCatV1.15B25,2013-07-07 09:16:00,
2013-07-07 05:21:00,75.7,73.2,30.05,East,97,0.0,0.0,92,0.00,,,0.00,WeatherCatV1.15B25,2013-07-07 09:21:00,
2013-07-07 05:26:00,75.7,73.2,30.05,East,94,0.0,2.0,92,0.00,,,0.00,WeatherCatV1.15B25,2013-07-07 09:26:00,
2013-07-07 05:31:00,75.6,73.1,30.05,East,94,0.0,1.0,92,0.00,,,0.00,WeatherCatV1.15B25,2013-07-07 09:31:00,
2013-07-07 05:36:00,75.6,73.1,30.05,East,94,0.0,1.0,92,0.00,,,0.00,WeatherCatV1.15B25,2013-07-07 09:36:00,
2013-07-07 05:41:00,75.5,73.0,30.04,East,92,0.0,1.0,92,0.00,,,0.00,WeatherCatV1.15B25,2013-07-07 09:41:00,
2013-07-07 05:46:00,75.4,73.2,30.04,East,92,0.0,2.0,93,0.00,,,0.00,WeatherCatV1.15B25,2013-07-07 09:46:00,
2013-07-07 05:51:00,75.3,73.1,30.04,ESE,102,1.0,4.0,93,0.00,,,0.00,WeatherCatV1.15B25,2013-07-07 09:51:00,
2013-07-07 05:56:00,75.3,73.1,30.04,East,88,0.0,1.0,93,0.00,,,0.00,WeatherCatV1.15B25,2013-07-07 09:56:00,
2013-07-07 06:01:00,75.3,73.1,30.04,East,101,0.0,1.0,93,0.00,,,0.00,WeatherCatV1.15B25,2013-07-07 10:01:00,
2013-07-07 06:06:00,75.3,73.1,30.04,East,99,0.0,1.0,93,0.00,,,0.00,WeatherCatV1.15B25,2013-07-07 10:06:00,
2013-07-07 06:11:00,75.3,73.1,30.05,East,98,0.0,1.0,93,0.00,,,0.00,WeatherCatV1.15B25,2013-07-07 10:11:00,
2013-07-07 06:16:00,75.2,73.0,30.05,East,98,1.0,2.0,93,0.00,,,0.00,WeatherCatV1.15B25,2013-07-07 10:16:00,
2013-07-07 06:21:00,75.2,73.0,30.05,ESE,117,3.0,3.0,93,0.00,,,0.00,WeatherCatV1.15B25,2013-07-07 10:21:00,
2013-07-07 06:26:00,75.2,73.0,30.04,ESE,108,1.0,4.0,93,0.00,,,0.00,WeatherCatV1.15B25,2013-07-07 10:26:00,
2013-07-07 06:31:00,75.2,73.0,30.05,East,94,0.0,2.0,93,0.00,,,0.00,WeatherCatV1.15B25,2013-07-07 10:31:00,
2013-07-07 06:36:00,75.2,73.0,30.05,East,101,0.0,4.0,93,0.00,,,0.00,WeatherCatV1.15B25,2013-07-07 10:36:00,
2013-07-07 06:41:00,75.1,73.2,30.05,ESE,111,0.0,1.0,94,0.00,,,0.00,WeatherCatV1.15B25,2013-07-07 10:41:00,
2013-07-07 06:46:00,75.1,73.2,30.05,ESE,119,0.0,1.0,94,0.00,,,0.00,WeatherCatV1.15B25,2013-07-07 10:46:00,
2013-07-07 06:51:00,75.1,73.2,30.05,ESE,103,0.0,1.0,94,0.00,,,0.00,WeatherCatV1.15B25,2013-07-07 10:51:00,
2013-07-07 06:56:00,75.1,73.2,30.06,East,96,0.0,2.0,94,0.00,,,0.00,WeatherCatV1.15B25,2013-07-07 10:56:00,
2013-07-07 07:01:00,75.1,73.2,30.06,East,96,0.0,2.0,94,0.00,,,0.00,WeatherCatV1.15B25,2013-07-07 11:01:00,
2013-07-07 07:06:00,75.1,73.2,30.06,East,93,0.0,2.0,94,0.00,,,0.00,WeatherCatV1.15B25,2013-07-07 11:06:00,
2013-07-07 07:11:00,75.2,73.3,30.06,East,101,0.0,2.0,94,0.00,,,0.00,WeatherCatV1.15B25,2013-07-07 11:11:00,
2013-07-07 07:16:00,75.4,73.5,30.06,East,98,0.0,3.0,94,0.00,,,0.00,WeatherCatV1.15B25,2013-07-07 11:16:00,
2013-07-07 07:21:00,75.7,73.8,30.06,East,98,0.0,1.0,94,0.00,,,0.00,WeatherCatV1.15B25,2013-07-07 11:21:00,
2013-07-07 07:26:00,76.0,73.8,30.06,East,82,2.0,2.0,93,0.00,,,0.00,WeatherCatV1.15B25,2013-07-07 11:26:00,
2013-07-07 07:31:00,76.4,74.2,30.06,East,101,0.0,1.0,93,0.00,,,0.00,WeatherCatV1.15B25,2013-07-07 11:31:00,
2013-07-07 07:36:00,76.7,74.2,30.06,ESE,105,2.0,4.0,92,0.00,,,0.00,WeatherCatV1.15B25,2013-07-07 11:36:00,
2013-07-07 07:41:00,77.1,74.3,30.06,ESE,102,1.0,2.0,91,0.00,,,0.00,WeatherCatV1.15B25,2013-07-07 11:41:00,
2013-07-07 07:46:00,77.5,74.7,30.06,ENE,77,4.0,6.0,91,0.00,,,0.00,WeatherCatV1.15B25,2013-07-07 11:46:00,
2013-07-07 07:51:00,77.8,74.6,30.07,ESE,106,4.0,7.0,90,0.00,,,0.00,WeatherCatV1.15B25,2013-07-07 11:51:00,
2013-07-07 07:56:00,78.1,74.9,30.07,East,95,0.0,1.0,90,0.00,,,0.00,WeatherCatV1.15B25,2013-07-07 11:56:00,
2013-07-07 08:01:00,78.5,75.0,30.07,ESE,121,2.0,7.0,89,0.00,,,0.00,WeatherCatV1.15B25,2013-07-07 12:01:00,
2013-07-07 08:06:00,78.9,75.4,30.07,ENE,76,0.0,2.0,89,0.00,,,0.00,WeatherCatV1.15B25,2013-07-07 12:06:00,
2013-07-07 08:11:00,79.4,75.2,30.07,ENE,59,4.0,5.0,87,0.00,,,0.00,WeatherCatV1.15B25,2013-07-07 12:11:00,
2013-07-07 08:16:00,79.9,75.3,30.07,ENE,61,1.0,5.0,86,0.00,,,0.00,WeatherCatV1.15B25,2013-07-07 12:16:00,
2013-07-07 08:21:00,80.3,75.7,30.07,ESE,109,2.0,6.0,86,0.00,,,0.00,WeatherCatV1.15B25,2013-07-07 12:21:00,
2013-07-07 08:26:00,80.7,75.8,30.07,NNE,28,2.0,3.0,85,0.00,,,0.00,WeatherCatV1.15B25,2013-07-07 12:26:00,
2013-07-07 08:31:00,81.1,75.4,30.08,East,95,1.0,7.0,83,0.00,,,0.00,WeatherCatV1.15B25,2013-07-07 12:31:00,
2013-07-07 08:36:00,81.4,75.7,30.08,East,90,2.0,6.0,83,0.00,,,0.00,WeatherCatV1.15B25,2013-07-07 12:36:00,
2013-07-07 08:41:00,81.7,75.7,30.08,ESE,123,4.0,6.0,82,0.00,,,0.00,WeatherCatV1.15B25,2013-07-07 12:41:00,
2013-07-07 08:46:00,82.0,75.9,30.08,ESE,105,0.0,6.0,82,0.00,,,0.00,WeatherCatV1.15B25,2013-07-07 12:46:00,
2013-07-07 08:51:00,82.3,76.2,30.08,SE,132,0.0,2.0,82,0.00,,,0.00,WeatherCatV1.15B25,2013-07-07 12:51:00,
2013-07-07 08:56:00,82.4,76.0,30.08,ESE,115,4.0,7.0,81,0.00,,,0.00,WeatherCatV1.15B25,2013-07-07 12:56:00,
2013-07-07 09:01:00,82.6,76.2,30.08,East,94,2.0,2.0,81,0.00,,,0.00,WeatherCatV1.15B25,2013-07-07 13:01:00,
2013-07-07 09:06:00,83.0,76.2,30.08,East,81,1.0,2.0,80,0.00,,,0.00,WeatherCatV1.15B25,2013-07-07 13:06:00,
2013-07-07 09:11:00,83.5,76.7,30.08,ESE,108,0.0,2.0,80,0.00,,,0.00,WeatherCatV1.15B25,2013-07-07 13:11:00,
2013-07-07 09:16:00,83.5,75.9,30.08,ESE,112,6.0,10.0,78,0.00,,,0.00,WeatherCatV1.15B25,2013-07-07 13:16:00,
2013-07-07 09:21:00,83.5,76.3,30.08,South,173,1.0,5.0,79,0.00,,,0.00,WeatherCatV1.15B25,2013-07-07 13:21:00,
2013-07-07 09:26:00,83.2,76.0,30.09,ENE,63,6.0,6.0,79,0.00,,,0.00,WeatherCatV1.15B25,2013-07-07 13:26:00,
2013-07-07 09:31:00,83.4,75.8,30.08,East,101,4.0,10.0,78,0.00,,,0.00,WeatherCatV1.15B25,2013-07-07 13:31:00,
2013-07-07 09:36:00,83.5,75.5,30.08,ENE,65,3.0,8.0,77,0.00,,,0.00,WeatherCatV1.15B25,2013-07-07 13:36:00,
2013-07-07 09:41:00,83.8,76.2,30.08,ESE,113,1.0,6.0,78,0.00,,,0.00,WeatherCatV1.15B25,2013-07-07 13:41:00,
2013-07-07 09:46:00,84.1,76.5,30.08,East,96,6.0,9.0,78,0.00,,,0.00,WeatherCatV1.15B25,2013-07-07 13:46:00,
2013-07-07 09:51:00,84.3,76.3,30.09,East,97,3.0,6.0,77,0.00,,,0.00,WeatherCatV1.15B25,2013-07-07 13:51:00,
2013-07-07 09:56:00,84.7,76.3,30.09,ENE,74,4.0,8.0,76,0.00,,,0.00,WeatherCatV1.15B25,2013-07-07 13:56:00,
2013-07-07 10:01:00,84.8,76.0,30.09,ESE,103,2.0,7.0,75,0.00,,,0.00,WeatherCatV1.15B25,2013-07-07 14:01:00,
2013-07-07 10:06:00,85.0,75.8,30.09,East,84,4.0,12.0,74,0.00,,,0.00,WeatherCatV1.15B25,2013-07-07 14:06:00,
2013-07-07 10:11:00,85.0,75.3,30.09,ESE,115,1.0,10.0,73,0.00,,,0.00,WeatherCatV1.15B25,2013-07-07 14:11:00,
2013-07-07 10:16:00,85.1,75.4,30.09,ENE,67,5.0,10.0,73,0.00,,,0.00,WeatherCatV1.15B25,2013-07-07 14:16:00,
2013-07-07 10:21:00,85.4,75.3,30.09,ENE,75,8.0,10.0,72,0.00,,,0.00,WeatherCatV1.15B25,2013-07-07 14:21:00,
2013-07-07 10:26:00,85.5,75.8,30.09,East,100,2.0,9.0,73,0.00,,,0.00,WeatherCatV1.15B25,2013-07-07 14:26:00,
2013-07-07 10:31:00,85.4,75.7,30.09,East,90,1.0,5.0,73,0.00,,,0.00,WeatherCatV1.15B25,2013-07-07 14:31:00,
2013-07-07 10:37:00,85.7,76.0,30.09,ENE,60,3.0,7.0,73,0.00,,,0.00,WeatherCatV1.15B25,2013-07-07 14:37:00,
2013-07-07 10:42:00,86.2,75.2,30.09,SE,134,6.0,12.0,70,0.00,,,0.00,WeatherCatV1.15B25,2013-07-07 14:42:00,
2013-07-07 10:47:00,86.6,75.6,30.09,East,91,4.0,8.0,70,0.00,,,0.00,WeatherCatV1.15B25,2013-07-07 14:47:00,
2013-07-07 10:52:00,86.8,74.9,30.09,ENE,59,7.0,8.0,68,0.00,,,0.00,WeatherCatV1.15B25,2013-07-07 14:52:00,
2013-07-07 10:57:00,87.2,76.2,30.09,ENE,72,5.0,9.0,70,0.00,,,0.00,WeatherCatV1.15B25,2013-07-07 14:57:00,
2013-07-07 11:02:00,87.7,74.9,30.09,SE,133,1.0,7.0,66,0.00,,,0.00,WeatherCatV1.15B25,2013-07-07 15:02:00,
2013-07-07 11:07:00,87.9,75.5,30.09,ESE,107,4.0,6.0,67,0.00,,,0.00,WeatherCatV1.15B25,2013-07-07 15:07:00,
2013-07-07 11:12:00,87.8,75.0,30.09,ENE,72,5.0,7.0,66,0.00,,,0.00,WeatherCatV1.15B25,2013-07-07 15:12:00,
2013-07-07 11:17:00,87.6,75.3,30.09,ENE,78,6.0,9.0,67,0.00,,,0.00,WeatherCatV1.15B25,2013-07-07 15:17:00,
2013-07-07 11:22:00,87.8,75.4,30.09,East,84,2.0,5.0,67,0.00,,,0.00,WeatherCatV1.15B25,2013-07-07 15:22:00,
2013-07-07 11:27:00,88.1,75.3,30.09,East,92,2.0,10.0,66,0.00,,,0.00,WeatherCatV1.15B25,2013-07-07 15:27:00,
2013-07-07 11:32:00,87.8,75.0,30.09,SE,132,5.0,9.0,66,0.00,,,0.00,WeatherCatV1.15B25,2013-07-07 15:32:00,
2013-07-07 11:37:00,87.9,74.6,30.09,East,94,1.0,8.0,65,0.00,,,0.00,WeatherCatV1.15B25,2013-07-07 15:37:00,
2013-07-07 11:42:00,87.9,75.1,30.08,ENE,74,5.0,9.0,66,0.00,,,0.00,WeatherCatV1.15B25,2013-07-07 15:42:00,
2013-07-07 11:47:00,87.9,74.6,30.09,East,86,6.0,9.0,65,0.00,,,0.00,WeatherCatV1.15B25,2013-07-07 15:47:00,
2013-07-07 11:52:00,88.0,75.2,30.08,ESE,107,2.0,8.0,66,0.00,,,0.00,WeatherCatV1.15B25,2013-07-07 15:52:00,
2013-07-07 11:57:00,88.2,75.4,30.09,East,99,5.0,8.0,66,0.00,,,0.00,WeatherCatV1.15B25,2013-07-07 15:57:00,
2013-07-07 12:02:00,88.6,74.8,30.08,SE,138,1.0,8.0,64,0.00,,,0.00,WeatherCatV1.15B25,2013-07-07 16:02:00,
2013-07-07 12:07:00,89.0,75.7,30.08,SSE,164,7.0,8.0,65,0.00,,,0.00,WeatherCatV1.15B25,2013-07-07 16:07:00,
2013-07-07 12:12:00,89.4,76.0,30.08,ENE,78,7.0,9.0,65,0.00,,,0.00,WeatherCatV1.15B25,2013-07-07 16:12:00,
2013-07-07 12:17:00,89.5,75.2,30.08,East,94,8.0,8.0,63,0.00,,,0.00,WeatherCatV1.15B25,2013-07-07 16:17:00,
2013-07-07 12:22:00,89.8,74.5,30.08,SE,126,2.0,8.0,61,0.00,,,0.00,WeatherCatV1.15B25,2013-07-07 16:22:00,
2013-07-07 12:27:00,89.9,75.1,30.08,SE,136,0.0,4.0,62,0.00,,,0.00,WeatherCatV1.15B25,2013-07-07 16:27:00,
2013-07-07 12:32:00,90.1,74.8,30.08,ENE,71,2.0,3.0,61,0.00,,,0.00,WeatherCatV1.15B25,2013-07-07 16:32:00,
2013-07-07 12:37:00,90.4,75.1,30.08,East,94,1.0,6.0,61,0.00,,,0.00,WeatherCatV1.15B25,2013-07-07 16:37:00,
2013-07-07 12:42:00,90.2,74.9,30.08,East,96,8.0,12.0,61,0.00,,,0.00,WeatherCatV1.15B25,2013-07-07 16:42:00,
2013-07-07 12:47:00,90.3,75.5,30.08,ESE,107,5.0,9.0,62,0.00,,,0.00,WeatherCatV1.15B25,2013-07-07 16:47:00,
2013-07-07 12:52:00,90.2,74.9,30.08,ESE,115,5.0,7.0,61,0.00,,,0.00,WeatherCatV1.15B25,2013-07-07 16:52:00,
2013-07-07 12:57:00,90.0,75.2,30.08,SE,126,5.0,7.0,62,0.00,,,0.00,WeatherCatV1.15B25,2013-07-07 16:57:00,
2013-07-07 13:02:00,89.8,75.5,30.07,East,84,6.0,7.0,63,0.00,,,0.00,WeatherCatV1.15B25,2013-07-07 17:02:00,
2013-07-07 13:07:00,89.6,74.3,30.07,ENE,75,6.0,8.0,61,0.00,,,0.00,WeatherCatV1.15B25,2013-07-07 17:07:00,
2013-07-07 13:12:00,89.6,74.8,30.07,SSW,192,5.0,7.0,62,0.00,,,0.00,WeatherCatV1.15B25,2013-07-07 17:12:00,
2013-07-07 13:17:00,89.9,74.1,30.06,ENE,65,5.0,9.0,60,0.00,,,0.00,WeatherCatV1.15B25,2013-07-07 17:17:00,
2013-07-07 13:22:00,90.2,74.4,30.06,North,355,4.0,12.0,60,0.00,,,0.00,WeatherCatV1.15B25,2013-07-07 17:22:00,
2013-07-07 13:27:00,90.5,74.2,30.07,SE,127,9.0,12.0,59,0.00,,,0.00,WeatherCatV1.15B25,2013-07-07 17:27:00,
2013-07-07 13:32:00,90.7,73.8,30.06,ESE,112,6.0,11.0,58,0.00,,,0.00,WeatherCatV1.15B25,2013-07-07 17:32:00,
2013-07-07 13:37:00,90.9,74.0,30.06,East,92,6.0,9.0,58,0.00,,,0.00,WeatherCatV1.15B25,2013-07-07 17:37:00,
2013-07-07 13:42:00,90.9,74.0,30.06,ENE,67,9.0,10.0,58,0.00,,,0.00,WeatherCatV1.15B25,2013-07-07 17:42:00,
2013-07-07 13:47:00,91.0,74.6,30.06,ESE,118,5.0,7.0,59,0.00,,,0.00,WeatherCatV1.15B25,2013-07-07 17:47:00,
2013-07-07 13:52:00,91.4,75.0,30.06,ENE,69,1.0,5.0,59,0.00,,,0.00,WeatherCatV1.15B25,2013-07-07 17:52:00,
2013-07-07 13:57:00,91.6,75.2,30.06,ENE,69,4.0,9.0,59,0.00,,,0.00,WeatherCatV1.15B25,2013-07-07 17:57:00,
2013-07-07 14:02:00,91.7,75.3,30.06,ESE,116,1.0,5.0,59,0.00,,,0.00,WeatherCatV1.15B25,2013-07-07 18:02:00,
2013-07-07 14:07:00,92.1,74.6,30.05,ESE,113,4.0,6.0,57,0.00,,,0.00,WeatherCatV1.15B25,2013-07-07 18:07:00,
2013-07-07 14:12:00,92.1,73.6,30.05,ESE,117,4.0,7.0,55,0.00,,,0.00,WeatherCatV1.15B25,2013-07-07 18:12:00,
2013-07-07 14:17:00,92.3,74.8,30.05,SE,138,1.0,6.0,57,0.00,,,0.00,WeatherCatV1.15B25,2013-07-07 18:17:00,
2013-07-07 14:22:00,92.8,73.7,30.05,East,88,1.0,7.0,54,0.00,,,0.00,WeatherCatV1.15B25,2013-07-07 18:22:00,
2013-07-07 14:27:00,93.1,73.9,30.05,ENE,71,3.0,7.0,54,0.00,,,0.00,WeatherCatV1.15B25,2013-07-07 18:27:00,
2013-07-07 14:32:00,93.2,74.0,30.05,South,171,0.0,3.0,54,0.00,,,0.00,WeatherCatV1.15B25,2013-07-07 18:32:00,
2013-07-07 14:37:00,93.2,74.0,30.05,East,98,5.0,9.0,54,0.00,,,0.00,WeatherCatV1.15B25,2013-07-07 18:37:00,
2013-07-07 14:42:00,92.9,73.2,30.05,East,99,5.0,8.0,53,0.00,,,0.00,WeatherCatV1.15B25,2013-07-07 18:42:00,
2013-07-07 14:47:00,92.7,74.1,30.05,ENE,65,2.0,10.0,55,0.00,,,0.00,WeatherCatV1.15B25,2013-07-07 18:47:00,
2013-07-07 14:52:00,92.8,74.2,30.04,East,95,3.0,9.0,55,0.00,,,0.00,WeatherCatV1.15B25,2013-07-07 18:52:00,
2013-07-07 14:57:00,92.8,74.2,30.04,SE,128,5.0,9.0,55,0.00,,,0.00,WeatherCatV1.15B25,2013-07-07 18:57:00,
2013-07-07 15:02:00,92.6,74.6,30.04,East,89,2.0,4.0,56,0.00,,,0.00,WeatherCatV1.15B25,2013-07-07 19:02:00,
2013-07-07 15:07:00,92.8,74.8,30.04,SSE,149,3.0,5.0,56,0.00,,,0.00,WeatherCatV1.15B25,2013-07-07 19:07:00,
2013-07-07 15:12:00,92.9,74.8,30.04,SE,128,5.0,5.0,56,0.00,,,0.00,WeatherCatV1.15B25,2013-07-07 19:12:00,
2013-07-07 15:17:00,92.9,76.4,30.04,East,94,1.0,2.0,59,0.00,,,0.00,WeatherCatV1.15B25,2013-07-07 19:17:00,
2013-07-07 15:22:00,93.2,75.1,30.04,SSE,157,2.0,4.0,56,0.00,,,0.00,WeatherCatV1.15B25,2013-07-07 19:22:00,
2013-07-07 15:27:00,93.1,75.0,30.04,ESE,113,6.0,8.0,56,0.00,,,0.00,WeatherCatV1.15B25,2013-07-07 19:27:00,
2013-07-07 15:32:00,92.7,75.2,30.03,SE,140,4.0,7.0,57,0.00,,,0.00,WeatherCatV1.15B25,2013-07-07 19:32:00,
2013-07-07 15:37:00,92.4,74.9,30.03,East,96,7.0,8.0,57,0.00,,,0.00,WeatherCatV1.15B25,2013-07-07 19:37:00,
2013-07-07 15:42:00,92.6,74.6,30.03,ESE,108,0.0,7.0,56,0.00,,,0.00,WeatherCatV1.15B25,2013-07-07 19:42:00,
2013-07-07 15:47:00,93.0,75.5,30.03,NE,55,2.0,6.0,57,0.00,,,0.00,WeatherCatV1.15B25,2013-07-07 19:47:00,
2013-07-07 15:52:00,92.9,75.4,30.03,ESE,123,3.0,7.0,57,0.00,,,0.00,WeatherCatV1.15B25,2013-07-07 19:52:00,
2013-07-07 15:57:00,92.2,74.7,30.03,SE,139,6.0,8.0,57,0.00,,,0.00,WeatherCatV1.15B25,2013-07-07 19:57:00,
2013-07-07 16:02:00,90.4,77.0,30.04,ESE,120,4.0,8.0,65,0.49,,,0.02,WeatherCatV1.15B25,2013-07-07 20:02:00,
2013-07-07 16:07:00,87.2,76.6,30.04,ESE,115,1.0,5.0,71,0.23,,,0.04,WeatherCatV1.15B25,2013-07-07 20:07:00,
2013-07-07 16:12:00,85.7,76.8,30.04,ESE,117,0.0,4.0,75,0.08,,,0.04,WeatherCatV1.15B25,2013-07-07 20:12:00,
2013-07-07 16:17:00,85.3,78.8,30.03,ENE,63,0.0,3.0,81,0.05,,,0.04,WeatherCatV1.15B25,2013-07-07 20:17:00,
2013-07-07 16:22:00,85.4,77.7,30.03,East,101,0.0,4.0,78,0.00,,,0.04,WeatherCatV1.15B25,2013-07-07 20:22:00,
2013-07-07 16:27:00,85.6,77.5,30.02,ESE,113,4.0,7.0,77,0.00,,,0.04,WeatherCatV1.15B25,2013-07-07 20:27:00,
2013-07-07 16:32:00,86.3,74.9,30.02,East,90,1.0,9.0,69,0.00,,,0.04,WeatherCatV1.15B25,2013-07-07 20:32:00,
2013-07-07 16:37:00,87.1,73.9,30.02,East,96,7.0,7.0,65,0.00,,,0.04,WeatherCatV1.15B25,2013-07-07 20:37:00,
2013-07-07 16:42:00,87.6,72.5,30.02,SE,126,2.0,9.0,61,0.00,,,0.04,WeatherCatV1.15B25,2013-07-07 20:42:00,
2013-07-07 16:47:00,88.2,73.5,30.02,East,91,2.0,9.0,62,0.00,,,0.04,WeatherCatV1.15B25,2013-07-07 20:47:00,
2013-07-07 16:52:00,88.9,74.6,30.02,ESE,115,0.0,6.0,63,0.00,,,0.04,WeatherCatV1.15B25,2013-07-07 20:52:00,
2013-07-07 16:57:00,89.5,74.2,30.02,SE,132,4.0,6.0,61,0.00,,,0.04,WeatherCatV1.15B25,2013-07-07 20:57:00,
2013-07-07 17:02:00,89.9,74.1,30.02,East,89,5.0,8.0,60,0.00,,,0.04,WeatherCatV1.15B25,2013-07-07 21:02:00,
2013-07-07 17:07:00,90.1,74.3,30.02,SE,130,1.0,7.0,60,0.00,,,0.04,WeatherCatV1.15B25,2013-07-07 21:07:00,
2013-07-07 17:12:00,90.4,75.1,30.01,East,80,4.0,4.0,61,0.00,,,0.04,WeatherCatV1.15B25,2013-07-07 21:12:00,
2013-07-07 17:17:00,90.7,75.4,30.01,ESE,104,6.0,6.0,61,0.00,,,0.04,WeatherCatV1.15B25,2013-07-07 21:17:00,
2013-07-07 17:22:00,90.9,75.1,30.01,ESE,117,1.0,10.0,60,0.00,,,0.04,WeatherCatV1.15B25,2013-07-07 21:22:00,
2013-07-07 17:27:00,91.0,75.6,30.01,SSE,150,4.0,10.0,61,0.00,,,0.04,WeatherCatV1.15B25,2013-07-07 21:27:00,
2013-07-07 17:32:00,90.9,75.5,30.01,SE,134,1.0,6.0,61,0.00,,,0.04,WeatherCatV1.15B25,2013-07-07 21:32:00,
2013-07-07 17:37:00,90.8,74.5,30.01,East,88,2.0,8.0,59,0.00,,,0.04,WeatherCatV1.15B25,2013-07-07 21:37:00,
2013-07-07 17:42:00,90.7,74.4,30.01,SE,134,1.0,5.0,59,0.00,,,0.04,WeatherCatV1.15B25,2013-07-07 21:42:00,
2013-07-07 17:47:00,90.8,74.5,30.01,ENE,61,4.0,10.0,59,0.00,,,0.04,WeatherCatV1.15B25,2013-07-07 21:47:00,
2013-07-07 17:52:00,90.5,74.2,30.01,East,98,4.0,10.0,59,0.00,,,0.04,WeatherCatV1.15B25,2013-07-07 21:52:00,
2013-07-07 17:57:00,90.1,73.3,30.01,East,92,6.0,9.0,58,0.00,,,0.04,WeatherCatV1.15B25,2013-07-07 21:57:00,
2013-07-07 18:02:00,89.5,73.7,30.01,ESE,119,2.0,7.0,60,0.00,,,0.04,WeatherCatV1.15B25,2013-07-07 22:02:00,
2013-07-07 18:07:00,89.2,74.0,30.01,ESE,103,1.0,4.0,61,0.00,,,0.04,WeatherCatV1.15B25,2013-07-07 22:07:00,
2013-07-07 18:12:00,88.8,73.6,30.01,SE,133,1.0,6.0,61,0.00,,,0.04,WeatherCatV1.15B25,2013-07-07 22:12:00,
2013-07-07 18:17:00,88.4,74.2,30.01,ESE,102,1.0,4.0,63,0.00,,,0.04,WeatherCatV1.15B25,2013-07-07 22:17:00,
2013-07-07 18:22:00,88.1,73.9,30.01,ESE,115,5.0,5.0,63,0.00,,,0.04,WeatherCatV1.15B25,2013-07-07 22:22:00,
2013-07-07 18:27:00,87.9,74.2,30.01,SE,144,1.0,4.0,64,0.00,,,0.04,WeatherCatV1.15B25,2013-07-07 22:27:00,
2013-07-07 18:32:00,87.6,74.3,30.01,SE,133,0.0,2.0,65,0.00,,,0.04,WeatherCatV1.15B25,2013-07-07 22:32:00,
2013-07-07 18:37:00,87.5,74.2,30.00,ESE,109,1.0,3.0,65,0.00,,,0.04,WeatherCatV1.15B25,2013-07-07 22:37:00,
2013-07-07 18:42:00,87.5,74.2,30.01,NE,43,1.0,7.0,65,0.00,,,0.04,WeatherCatV1.15B25,2013-07-07 22:42:00,
2013-07-07 18:47:00,87.3,74.5,30.01,ESE,113,2.0,6.0,66,0.00,,,0.04,WeatherCatV1.15B25,2013-07-07 22:47:00,
2013-07-07 18:52:00,87.2,74.9,30.01,ESE,118,0.0,5.0,67,0.00,,,0.04,WeatherCatV1.15B25,2013-07-07 22:52:00,
2013-07-07 18:57:00,87.0,74.2,30.01,South,170,2.0,8.0,66,0.00,,,0.04,WeatherCatV1.15B25,2013-07-07 22:57:00,
2013-07-07 19:02:00,86.7,73.9,30.01,East,96,2.0,3.0,66,0.00,,,0.04,WeatherCatV1.15B25,2013-07-07 23:02:00,
2013-07-07 19:07:00,86.5,73.3,30.01,ESE,111,0.0,6.0,65,0.00,,,0.04,WeatherCatV1.15B25,2013-07-07 23:07:00,
2013-07-07 19:12:00,86.4,73.2,30.02,ESE,111,0.0,2.0,65,0.00,,,0.04,WeatherCatV1.15B25,2013-07-07 23:12:00,
2013-07-07 19:17:00,86.3,73.6,30.02,ESE,105,0.0,2.0,66,0.00,,,0.04,WeatherCatV1.15B25,2013-07-07 23:17:00,
2013-07-07 19:22:00,86.2,73.5,30.02,ESE,111,2.0,4.0,66,0.00,,,0.04,WeatherCatV1.15B25,2013-07-07 23:22:00,
2013-07-07 19:27:00,86.1,73.4,30.02,ENE,65,0.0,5.0,66,0.00,,,0.04,WeatherCatV1.15B25,2013-07-07 23:27:00,
2013-07-07 19:33:00,86.1,73.4,30.01,ENE,78,0.0,2.0,66,0.00,,,0.04,WeatherCatV1.15B25,2013-07-07 23:33:00,
2013-07-07 19:38:00,86.1,73.4,30.01,ENE,78,1.0,2.0,66,0.00,,,0.04,WeatherCatV1.15B25,2013-07-07 23:38:00,
2013-07-07 19:43:00,86.1,73.4,30.01,ENE,78,0.0,1.0,66,0.00,,,0.04,WeatherCatV1.15B25,2013-07-07 23:43:00,
2013-07-07 19:48:00,85.9,73.2,30.02,ENE,77,0.0,0.0,66,0.00,,,0.04,WeatherCatV1.15B25,2013-07-07 23:48:00,
2013-07-07 19:53:00,85.8,73.1,30.02,East,96,1.0,2.0,66,0.00,,,0.04,WeatherCatV1.15B25,2013-07-07 23:53:00,
2013-07-07 19:58:00,85.7,73.0,30.02,East,94,0.0,2.0,66,0.00,,,0.04,WeatherCatV1.15B25,2013-07-07 23:58:00,
2013-07-07 20:03:00,85.6,73.4,30.03,East,94,0.0,1.0,67,0.00,,,0.04,WeatherCatV1.15B25,2013-07-08 00:03:00,
2013-07-07 20:08:00,85.5,73.3,30.03,East,94,0.0,0.0,67,0.00,,,0.04,WeatherCatV1.15B25,2013-07-08 00:08:00,
2013-07-07 20:13:00,85.4,73.6,30.03,East,94,0.0,0.0,68,0.00,,,0.04,WeatherCatV1.15B25,2013-07-08 00:13:00,
2013-07-07 20:18:00,85.2,73.9,30.04,East,94,0.0,0.0,69,0.00,,,0.04,WeatherCatV1.15B25,2013-07-08 00:18:00,
2013-07-07 20:23:00,85.0,73.7,30.04,East,91,0.0,1.0,69,0.00,,,0.04,WeatherCatV1.15B25,2013-07-08 00:23:00,
2013-07-07 20:28:00,84.7,73.8,30.04,East,96,0.0,4.0,70,0.00,,,0.04,WeatherCatV1.15B25,2013-07-08 00:28:00,
2013-07-07 20:33:00,84.6,73.7,30.04,East,99,0.0,0.0,70,0.00,,,0.04,WeatherCatV1.15B25,2013-07-08 00:33:00,
2013-07-07 20:38:00,84.4,73.5,30.04,ESE,111,2.0,3.0,70,0.00,,,0.04,WeatherCatV1.15B25,2013-07-08 00:38:00,
2013-07-07 20:43:00,84.3,73.0,30.04,ESE,111,0.0,5.0,69,0.00,,,0.04,WeatherCatV1.15B25,2013-07-08 00:43:00,
2013-07-07 20:48:00,84.3,73.0,30.05,East,89,0.0,5.0,69,0.00,,,0.04,WeatherCatV1.15B25,2013-07-08 00:48:00,
2013-07-07 20:53:00,84.3,73.0,30.05,SE,124,2.0,6.0,69,0.00,,,0.04,WeatherCatV1.15B25,2013-07-08 00:53:00,
2013-07-07 20:58:00,84.3,73.0,30.05,East,100,0.0,6.0,69,0.00,,,0.04,WeatherCatV1.15B25,2013-07-08 00:58:00,
2013-07-07 21:03:00,84.4,73.1,30.05,ESE,110,3.0,6.0,69,0.00,,,0.04,WeatherCatV1.15B25,2013-07-08 01:03:00,
2013-07-07 21:08:00,84.3,73.0,30.06,ENE,67,4.0,7.0,69,0.00,,,0.04,WeatherCatV1.15B25,2013-07-08 01:08:00,
2013-07-07 21:13:00,84.3,73.4,30.06,East,91,1.0,2.0,70,0.00,,,0.04,WeatherCatV1.15B25,2013-07-08 01:13:00,
2013-07-07 21:18:00,84.1,73.2,30.06,East,84,5.0,6.0,70,0.00,,,0.04,WeatherCatV1.15B25,2013-07-08 01:18:00,
2013-07-07 21:23:00,83.9,73.0,30.06,East,89,2.0,4.0,70,0.00,,,0.04,WeatherCatV1.15B25,2013-07-08 01:23:00,
2013-07-07 21:28:00,83.8,73.4,30.06,ESE,112,0.0,2.0,71,0.00,,,0.04,WeatherCatV1.15B25,2013-07-08 01:28:00,
2013-07-07 21:33:00,83.6,73.2,30.06,ESE,107,2.0,5.0,71,0.00,,,0.04,WeatherCatV1.15B25,2013-07-08 01:33:00,
2013-07-07 21:38:00,83.5,73.1,30.06,ESE,115,0.0,4.0,71,0.00,,,0.04,WeatherCatV1.15B25,2013-07-08 01:38:00,
2013-07-07 21:43:00,83.3,73.3,30.07,East,89,0.0,4.0,72,0.00,,,0.04,WeatherCatV1.15B25,2013-07-08 01:43:00,
2013-07-07 21:48:00,83.1,73.1,30.07,ESE,111,0.0,1.0,72,0.00,,,0.04,WeatherCatV1.15B25,2013-07-08 01:48:00,
2013-07-07 21:53:00,83.0,73.0,30.07,East,98,0.0,2.0,72,0.00,,,0.04,WeatherCatV1.15B25,2013-07-08 01:53:00,
2013-07-07 21:58:00,82.8,73.2,30.07,ESE,105,0.0,4.0,73,0.00,,,0.04,WeatherCatV1.15B25,2013-07-08 01:58:00,
2013-07-07 22:03:00,82.7,73.1,30.08,ESE,108,0.0,3.0,73,0.00,,,0.04,WeatherCatV1.15B25,2013-07-08 02:03:00,
2013-07-07 22:08:00,82.6,73.0,30.08,ESE,111,0.0,3.0,73,0.00,,,0.04,WeatherCatV1.15B25,2013-07-08 02:08:00,
2013-07-07 22:13:00,82.5,72.9,30.08,East,100,1.0,2.0,73,0.00,,,0.04,WeatherCatV1.15B25,2013-07-08 02:13:00,
2013-07-07 22:18:00,82.4,72.8,30.09,East,80,1.0,2.0,73,0.00,,,0.04,WeatherCatV1.15B25,2013-07-08 02:18:00,
2013-07-07 22:23:00,82.3,73.2,30.09,ENE,76,0.0,2.0,74,0.00,,,0.04,WeatherCatV1.15B25,2013-07-08 02:23:00,
2013-07-07 22:28:00,82.1,73.0,30.09,ENE,76,0.0,0.0,74,0.00,,,0.04,WeatherCatV1.15B25,2013-07-08 02:28:00,
2013-07-07 22:33:00,82.0,72.9,30.09,ENE,76,0.0,0.0,74,0.00,,,0.04,WeatherCatV1.15B25,2013-07-08 02:33:00,
2013-07-07 22:38:00,81.8,73.1,30.09,ENE,76,0.0,2.0,75,0.00,,,0.04,WeatherCatV1.15B25,2013-07-08 02:38:00,
2013-07-07 22:43:00,81.6,72.9,30.10,ENE,77,0.0,1.0,75,0.00,,,0.04,WeatherCatV1.15B25,2013-07-08 02:43:00,
2013-07-07 22:48:00,81.4,73.1,30.10,ENE,77,0.0,1.0,76,0.00,,,0.04,WeatherCatV1.15B25,2013-07-08 02:48:00,
2013-07-07 22:53:00,81.3,73.0,30.10,ENE,76,2.0,2.0,76,0.00,,,0.04,WeatherCatV1.15B25,2013-07-08 02:53:00,
2013-07-07 22:58:00,81.1,72.8,30.10,ENE,76,0.0,1.0,76,0.00,,,0.04,WeatherCatV1.15B25,2013-07-08 02:58:00,
2013-07-07 23:03:00,81.0,73.1,30.10,ENE,76,0.0,1.0,77,0.00,,,0.04,WeatherCatV1.15B25,2013-07-08 03:03:00,
2013-07-07 23:08:00,80.9,73.0,30.10,ENE,76,0.0,2.0,77,0.00,,,0.04,WeatherCatV1.15B25,2013-07-08 03:08:00,
2013-07-07 23:13:00,80.8,72.9,30.10,ENE,76,0.0,1.0,77,0.00,,,0.04,WeatherCatV1.15B25,2013-07-08 03:13:00,
2013-07-07 23:18:00,80.7,73.2,30.11,ENE,76,0.0,1.0,78,0.00,,,0.04,WeatherCatV1.15B25,2013-07-08 03:18:00,
2013-07-07 23:23:00,80.6,73.1,30.11,ENE,76,0.0,0.0,78,0.00,,,0.04,WeatherCatV1.15B25,2013-07-08 03:23:00,
2013-07-07 23:28:00,80.5,73.4,30.11,ENE,76,0.0,0.0,79,0.00,,,0.04,WeatherCatV1.15B25,2013-07-08 03:28:00,
2013-07-07 23:33:00,80.3,73.2,30.11,ENE,76,0.0,1.0,79,0.00,,,0.04,WeatherCatV1.15B25,2013-07-08 03:33:00,
2013-07-07 23:38:00,80.1,73.4,30.12,ENE,76,0.0,0.0,80,0.00,,,0.04,WeatherCatV1.15B25,2013-07-08 03:38:00,
2013-07-07 23:43:00,80.0,73.3,30.11,ENE,76,0.0,0.0,80,0.00,,,0.04,WeatherCatV1.15B25,2013-07-08 03:43:00,
2013-07-07 23:48:00,79.8,73.1,30.11,ENE,76,0.0,0.0,80,0.00,,,0.04,WeatherCatV1.15B25,2013-07-08 03:48:00,
2013-07-07 23:53:00,79.7,73.3,30.12,ENE,76,0.0,1.0,81,0.00,,,0.04,WeatherCatV1.15B25,2013-07-08 03:53:00,
2013-07-07 23:58:00,79.6,73.2,30.11,ENE,76,0.0,1.0,81,0.00,,,0.04,WeatherCatV1.15B25,2013-07-08 03:58:00,